EW8125 Weather Reports


time (UTC)temp
F
wind
direction
speed
knots
gust
knots
rain 1hr
in
rain 24hr
in
rain mn
in
humidity
%
barometer
mb
20260510214203 45 0 0.0 0.0 0.00 0.00 0.00 76 1014.7
20260510214113 45 0 0.0 0.0 0.00 0.00 0.00 77 1014.7
20260510213603 45 290 0.0 0.9 0.00 0.00 0.00 77 1014.7
20260510213303 45 289 0.0 0.9 0.00 0.00 0.00 76 1014.7
20260510213003 45 287 0.0 0.9 0.00 0.00 0.00 76 1014.8
20260510212914 45 287 0.0 0.9 0.00 0.00 0.00 75 1014.7
20260510212403 45 282 0.0 0.9 0.00 0.00 0.00 74 1014.6
20260510212103 45 264 0.0 0.9 0.00 0.00 0.00 73 1014.7
20260510212013 45 264 0.0 0.9 0.00 0.00 0.00 73 1014.7
20260510211503 45 264 0.0 0.9 0.00 0.00 0.00 74 1014.5
20260510211204 46 264 0.0 0.9 0.00 0.00 0.00 74 1014.4
20260510210903 46 264 0.0 0.9 0.00 0.00 0.00 74 1014.4
20260510210603 46 264 0.0 0.9 0.00 0.00 0.00 73 1014.4
20260510210303 46 264 0.0 0.9 0.00 0.00 0.00 73 1014.5
20260510210005 46 264 0.0 0.9 0.00 0.00 0.00 73 1014.5
20260510205703 46 264 0.0 0.9 0.00 0.00 0.00 72 1014.4
20260510205403 46 264 0.0 0.9 0.00 0.00 0.00 73 1014.5
20260510205104 46 264 0.0 0.9 0.00 0.00 0.00 72 1014.5
20260510204803 46 264 0.0 0.9 0.00 0.00 0.00 72 1014.5
20260510204503 46 264 0.0 0.9 0.00 0.00 0.00 72 1014.6
20260510204203 47 264 0.0 0.9 0.00 0.00 0.00 71 1014.5
20260510204112 47 264 0.0 0.9 0.00 0.00 0.00 71 1014.5
20260510203603 47 264 0.0 0.9 0.00 0.00 0.00 71 1014.5
20260510203514 47 264 0.0 0.9 0.00 0.00 0.00 71 1014.5
20260510203003 47 264 0.0 0.9 0.00 0.00 0.00 71 1014.4
20260510202703 47 264 0.0 0.9 0.00 0.00 0.00 70 1014.5
20260510202403 47 264 0.0 0.9 0.00 0.00 0.00 70 1014.5
20260510202103 47 264 0.0 0.9 0.00 0.00 0.00 70 1014.4
20260510202013 47 264 0.0 0.9 0.00 0.00 0.00 70 1014.5
20260510201712 47 264 0.0 0.9 0.00 0.00 0.00 70 1014.5
20260510201204 48 264 0.0 0.9 0.00 0.00 0.00 70 1014.6
20260510200903 48 264 0.0 0.9 0.00 0.00 0.00 70 1014.6
20260510200603 48 264 0.0 0.9 0.00 0.00 0.00 69 1014.5
20260510200303 48 264 0.0 0.9 0.00 0.00 0.00 69 1014.6
20260510200003 49 264 0.0 0.9 0.00 0.00 0.00 68 1014.6
20260510195703 49 266 0.0 0.9 0.00 0.00 0.00 67 1014.6
20260510195403 49 268 0.0 0.9 0.00 0.00 0.00 67 1014.6
20260510195103 49 268 0.0 0.9 0.00 0.00 0.00 67 1014.5
20260510194803 49 268 0.0 0.9 0.00 0.00 0.00 68 1014.5
20260510194504 49 268 0.0 0.9 0.00 0.00 0.00 67 1014.4
20260510194203 49 268 0.0 0.9 0.00 0.00 0.00 67 1014.4
20260510194114 49 268 0.0 0.9 0.00 0.00 0.00 68 1014.4
20260510193814 49 268 0.0 0.9 0.00 0.00 0.00 68 1014.5
20260510193303 49 311 0.0 0.9 0.00 0.00 0.00 67 1014.5
20260510193005 49 311 0.0 0.9 0.00 0.00 0.00 67 1014.5
20260510192703 49 311 0.0 0.9 0.00 0.00 0.00 67 1014.5
20260510192613 49 311 0.0 0.9 0.00 0.00 0.00 68 1014.5
20260510192103 50 332 0.0 0.9 0.00 0.00 0.00 67 1014.5
20260510191803 50 332 0.0 0.9 0.00 0.00 0.00 66 1014.5
20260510191504 50 332 0.0 0.9 0.00 0.00 0.00 65 1014.5
20260510191203 51 332 0.0 0.9 0.00 0.00 0.00 65 1014.4
20260510191114 51 332 0.0 0.9 0.00 0.00 0.00 64 1014.4
20260510190603 51 332 0.0 0.9 0.00 0.00 0.00 64 1014.6
20260510190303 51 345 0.0 0.9 0.00 0.00 0.00 63 1014.6
20260510190003 52 359 0.0 0.9 0.00 0.00 0.00 61 1014.6
20260510185703 52 345 0.0 0.9 0.00 0.00 0.00 63 1014.6
20260510185612 52 344 0.0 0.9 0.00 0.00 0.00 61 1014.6
20260510185103 52 341 0.0 1.7 0.00 0.00 0.00 61 1014.6
20260510184803 52 329 0.0 1.7 0.00 0.00 0.00 62 1014.6
20260510184503 52 71 0.0 1.7 0.00 0.00 0.00 62 1014.6
20260510184203 53 47 0.0 1.7 0.00 0.00 0.00 61 1014.6
20260510184113 53 14 0.0 0.9 0.00 0.00 0.00 63 1014.6
20260510183813 53 11 0.0 0.9 0.00 0.00 0.00 62 1014.6
20260510183303 53 29 0.0 3.5 0.00 0.00 0.00 61 1014.8
20260510183003 53 35 0.0 3.5 0.00 0.00 0.00 62 1014.6
20260510182703 53 35 0.0 3.5 0.00 0.00 0.00 63 1014.6
20260510182403 53 45 0.0 3.5 0.00 0.00 0.00 65 1014.7
20260510182103 53 95 0.0 1.7 0.00 0.00 0.00 65 1014.5
20260510181804 53 94 0.0 1.7 0.00 0.00 0.00 63 1014.6
20260510181503 53 94 0.0 1.7 0.00 0.00 0.00 64 1014.5
20260510181203 53 139 0.0 1.7 0.00 0.00 0.00 65 1014.5
20260510180904 53 266 0.0 0.9 0.00 0.00 0.00 63 1014.4
20260510180603 53 359 0.0 1.7 0.00 0.00 0.00 65 1014.5
20260510180303 53 345 0.0 1.7 0.00 0.00 0.00 63 1014.4
20260510180005 53 340 0.0 1.7 0.00 0.00 0.00 61 1014.5
20260510175703 53 342 0.0 1.7 0.00 0.00 0.00 61 1014.4
20260510175403 53 67 0.0 1.7 0.00 0.00 0.00 62 1014.4
20260510175314 53 57 0.0 1.7 0.00 0.00 0.00 62 1014.5
20260510174803 54 55 0.0 2.6 0.00 0.00 0.00 63 1014.6
20260510174503 54 58 0.0 3.5 0.00 0.00 0.00 62 1014.5
20260510174203 54 63 0.0 5.2 0.00 0.00 0.00 63 1014.5
20260510173903 54 59 0.0 5.2 0.00 0.00 0.00 62 1014.5
20260510173813 54 53 0.0 5.2 0.00 0.00 0.00 63 1014.5
20260510173303 54 46 0.0 0.9 0.00 0.00 0.00 62 1014.5
20260510173003 54 59 0.0 1.7 0.00 0.00 0.00 61 1014.5
20260510172703 54 61 0.0 1.7 0.00 0.00 0.00 60 1014.6
20260510172403 54 46 0.0 1.7 0.00 0.00 0.00 61 1014.5
20260510172103 54 25 0.0 1.7 0.00 0.00 0.00 61 1014.6
20260510171803 55 6 0.0 1.7 0.00 0.00 0.00 59 1014.6
20260510171503 55 81 0.0 1.7 0.00 0.00 0.00 61 1014.5
20260510171203 55 94 0.0 1.7 0.00 0.00 0.00 60 1014.7
20260510170903 55 88 0.0 1.7 0.00 0.00 0.00 60 1014.7
20260510170603 56 67 0.0 0.9 0.00 0.00 0.00 60 1014.8
20260510170303 56 356 0.0 0.9 0.00 0.00 0.00 61 1014.9
20260510170003 56 351 0.0 1.7 0.00 0.00 0.00 60 1014.8
20260510165704 56 45 0.0 3.5 0.00 0.00 0.00 61 1014.9
20260510165614 56 45 0.0 3.5 0.00 0.00 0.00 60 1014.9
20260510165103 56 52 0.0 3.5 0.00 0.00 0.00 61 1015.0
20260510164803 56 127 0.0 2.6 0.00 0.00 0.00 61 1015.0
20260510164715 56 230 0.0 1.7 0.00 0.00 0.00 63 1014.9
20260510164203 56 353 0.0 2.6 0.00 0.00 0.00 60 1015.1
20260510163903 56 37 0.0 2.6 0.00 0.00 0.00 60 1015.2
20260510163603 56 84 0.0 2.6 0.00 0.00 0.00 62 1015.2
20260510163303 56 69 0.0 2.6 0.00 0.00 0.00 60 1015.3
20260510163003 56 77 0.0 2.6 0.00 0.00 0.00 61 1015.4
20260510162703 56 67 0.0 2.6 0.00 0.00 0.00 60 1015.4
20260510162403 56 52 0.0 2.6 0.00 0.00 0.00 59 1015.4
20260510162103 56 44 0.0 2.6 0.00 0.00 0.00 60 1015.4
20260510161803 57 44 0.0 2.6 0.00 0.00 0.00 57 1015.4
20260510161503 57 9 0.0 2.6 0.00 0.00 0.00 58 1015.4
20260510161203 57 332 0.0 2.6 0.00 0.00 0.00 57 1015.4
20260510160903 57 45 0.0 2.6 0.00 0.00 0.00 60 1015.5
20260510160603 57 61 0.0 1.7 0.00 0.00 0.00 60 1015.6
20260510160514 57 65 0.0 1.7 0.00 0.00 0.00 61 1015.4
20260510160003 57 58 0.0 2.6 0.00 0.00 0.00 61 1015.6
20260510155914 57 58 0.0 2.6 0.00 0.00 0.00 61 1015.6
20260510155404 57 55 0.0 1.7 0.00 0.00 0.00 61 1015.7
20260510155103 57 352 0.0 2.6 0.00 0.00 0.00 59 1015.6
20260510154803 57 6 0.0 2.6 0.00 0.00 0.00 60 1015.8
20260510154503 57 47 0.9 7.0 0.00 0.00 0.00 63 1015.7
20260510154203 57 63 0.9 7.0 0.00 0.00 0.00 60 1015.8
20260510154112 57 64 0.9 7.0 0.00 0.00 0.00 58 1015.8
20260510153603 58 84 0.0 2.6 0.00 0.00 0.00 57 1015.8
20260510153303 58 75 0.0 1.7 0.00 0.00 0.00 61 1015.8
20260510153214 58 64 0.0 4.3 0.00 0.00 0.00 57 1015.7
20260510152703 57 63 0.9 4.3 0.00 0.00 0.00 59 1015.9
20260510152403 57 65 0.9 4.3 0.00 0.00 0.00 60 1016.0
20260510152103 57 76 0.0 1.7 0.00 0.00 0.00 60 1016.0
20260510151803 57 78 0.9 3.5 0.00 0.00 0.00 61 1015.9
20260510151715 57 78 0.9 3.5 0.00 0.00 0.00 61 1015.9
20260510151203 58 70 0.9 3.5 0.00 0.00 0.00 58 1016.0
20260510150903 58 54 0.9 2.6 0.00 0.00 0.00 60 1016.0
20260510150603 57 43 0.9 3.5 0.00 0.00 0.00 62 1016.2
20260510150303 57 48 0.9 3.5 0.00 0.00 0.00 61 1016.3
20260510150003 57 50 0.9 3.5 0.00 0.00 0.00 60 1016.2
20260510145703 57 55 0.9 3.5 0.00 0.00 0.00 60 1016.3
20260510145403 57 49 0.9 3.5 0.00 0.00 0.00 60 1016.3
20260510145105 58 66 0.9 2.6 0.00 0.00 0.00 59 1016.2
20260510144803 58 68 0.9 2.6 0.00 0.00 0.00 60 1016.3
20260510144503 58 82 0.9 2.6 0.00 0.00 0.00 60 1016.3
20260510144203 58 83 0.9 3.5 0.00 0.00 0.00 62 1016.4
20260510143903 58 74 0.9 5.2 0.00 0.00 0.00 61 1016.4
20260510143603 58 70 0.9 5.2 0.00 0.00 0.00 62 1016.5
20260510143513 58 66 0.9 5.2 0.00 0.00 0.00 61 1016.5
20260510143003 58 59 0.9 3.5 0.00 0.00 0.00 64 1016.7
20260510142913 58 65 0.9 3.5 0.00 0.00 0.00 63 1016.7
20260510142613 58 59 0.9 3.5 0.00 0.00 0.00 61 1016.7
20260510142103 58 71 0.0 3.5 0.00 0.00 0.00 63 1016.8
20260510141803 58 88 0.0 3.5 0.00 0.00 0.00 65 1016.8
20260510141503 58 75 0.0 3.5 0.00 0.00 0.00 64 1016.8
20260510141203 57 92 0.0 3.5 0.00 0.00 0.00 65 1016.8
20260510140903 57 69 0.0 3.5 0.00 0.00 0.00 65 1017.0
20260510140603 57 72 0.9 3.5 0.00 0.00 0.00 63 1017.0
20260510140303 57 80 0.9 2.6 0.00 0.00 0.00 65 1017.0
20260510140003 57 72 0.0 2.6 0.00 0.00 0.00 65 1017.0
20260510135703 56 86 0.9 3.5 0.00 0.00 0.00 64 1017.0
20260510135403 56 79 0.9 3.5 0.00 0.00 0.00 65 1017.0
20260510135103 56 81 0.9 3.5 0.00 0.00 0.00 62 1017.0
20260510134803 57 80 0.9 2.6 0.00 0.00 0.00 64 1016.9
20260510134714 57 81 0.9 2.6 0.00 0.00 0.00 65 1016.9
20260510134203 57 77 0.9 2.6 0.00 0.00 0.00 63 1017.0
20260510134113 57 76 0.9 2.6 0.00 0.00 0.00 63 1017.0
20260510133604 58 77 0.9 2.6 0.00 0.00 0.00 63 1017.0
20260510133303 57 79 0.9 2.6 0.00 0.00 0.00 64 1017.0
20260510133003 57 62 0.9 2.6 0.00 0.00 0.00 63 1017.1
20260510132704 56 44 0.9 2.6 0.00 0.00 0.00 65 1017.2
20260510132403 56 54 0.9 5.2 0.00 0.00 0.00 66 1017.2
20260510132312 56 52 0.9 5.2 0.00 0.00 0.00 66 1017.2
20260510132014 56 71 0.9 5.2 0.00 0.00 0.00 66 1017.3
20260510131714 56 69 0.9 5.2 0.00 0.00 0.00 65 1017.3
20260510131203 56 79 0.9 2.6 0.00 0.00 0.00 67 1017.2
20260510130903 56 75 0.9 2.6 0.00 0.00 0.00 68 1017.3
20260510130603 56 73 0.9 2.6 0.00 0.00 0.00 67 1017.4
20260510130513 56 76 0.9 2.6 0.00 0.00 0.00 67 1017.4
20260510130003 56 79 0.9 2.6 0.00 0.00 0.00 67 1017.4
20260510125703 56 81 0.9 2.6 0.00 0.00 0.00 68 1017.3
20260510125403 56 80 0.9 2.6 0.00 0.00 0.00 66 1017.3
20260510125103 56 79 0.9 4.3 0.00 0.00 0.00 66 1017.4
20260510124803 56 79 0.9 4.3 0.00 0.00 0.00 68 1017.4
20260510124504 56 82 0.9 4.3 0.00 0.00 0.00 68 1017.6
20260510124203 56 84 0.9 4.3 0.00 0.00 0.00 67 1017.6
20260510123903 56 83 0.9 4.3 0.00 0.00 0.00 68 1017.6
20260510123603 55 85 0.9 4.3 0.00 0.00 0.00 69 1017.5
20260510123303 55 81 0.9 4.3 0.00 0.00 0.00 68 1017.6
20260510123212 55 82 0.9 4.3 0.00 0.00 0.00 69 1017.6
20260510122703 55 76 0.9 4.3 0.00 0.00 0.00 70 1017.8
20260510122403 55 70 0.9 6.1 0.00 0.00 0.00 70 1017.8
20260510122103 55 87 0.9 6.1 0.00 0.00 0.00 69 1017.9
20260510121803 55 90 0.9 6.1 0.00 0.00 0.00 71 1018.1
20260510121713 55 88 0.9 6.1 0.00 0.00 0.00 72 1018.0
20260510121203 55 77 0.9 4.3 0.00 0.00 0.00 70 1018.0
20260510120903 54 69 0.9 4.3 0.00 0.00 0.00 71 1018.0
20260510120603 54 75 0.9 5.2 0.00 0.00 0.00 71 1018.1
20260510120303 54 75 0.9 5.2 0.00 0.00 0.00 71 1018.2
20260510120005 54 78 0.9 5.2 0.00 0.00 0.00 72 1018.2
20260510115703 54 78 0.9 3.5 0.00 0.00 0.00 73 1018.2
20260510115403 54 83 0.9 3.5 0.00 0.00 0.00 72 1018.2
20260510115103 54 85 0.0 2.6 0.00 0.00 0.00 74 1018.2
20260510114803 54 89 0.0 2.6 0.00 0.00 0.00 72 1018.2
20260510114503 54 108 0.0 3.5 0.00 0.00 0.00 75 1018.3
20260510114203 54 72 0.0 3.5 0.00 0.00 0.00 73 1018.3
20260510113903 53 70 0.0 3.5 0.00 0.00 0.00 75 1018.5
20260510113603 53 66 0.0 3.5 0.00 0.00 0.00 74 1018.4
20260510113303 53 61 0.0 2.6 0.00 0.00 0.00 75 1018.3
20260510113003 53 76 0.9 2.6 0.00 0.00 0.00 74 1018.5
20260510112703 53 74 0.9 2.6 0.00 0.00 0.00 74 1018.5
20260510112403 53 80 0.9 2.6 0.00 0.00 0.00 75 1018.5
20260510112104 52 77 0.9 7.8 0.00 0.00 0.00 74 1018.5
20260510112013 52 79 0.9 7.8 0.00 0.00 0.00 74 1018.5
20260510111503 52 71 0.9 7.8 0.00 0.00 0.00 74 1018.6
20260510111203 52 77 0.9 7.0 0.00 0.00 0.00 75 1018.6
20260510111112 52 76 0.9 7.0 0.00 0.00 0.00 74 1018.6
20260510110603 52 92 0.9 1.7 0.00 0.00 0.00 77 1018.7
20260510110512 52 88 0.9 1.7 0.00 0.00 0.00 77 1018.7
20260510110214 52 79 0.9 2.6 0.00 0.00 0.00 76 1018.7
20260510105914 52 73 0.9 6.1 0.00 0.00 0.00 77 1018.7
20260510105613 52 69 0.9 6.1 0.00 0.00 0.00 76 1018.8
20260510105103 51 68 0.9 6.1 0.00 0.00 0.00 76 1018.8
20260510104803 51 72 0.9 2.6 0.00 0.00 0.00 77 1018.7
20260510104503 51 74 0.9 2.6 0.00 0.00 0.00 77 1018.7
20260510104203 51 78 0.9 2.6 0.00 0.00 0.00 77 1018.8
20260510104112 51 74 0.9 2.6 0.00 0.00 0.00 77 1018.8
20260510103812 51 67 0.9 6.1 0.00 0.00 0.00 77 1018.8
20260510103514 51 67 0.9 6.1 0.00 0.00 0.00 78 1018.7
20260510103003 51 77 0.9 7.0 0.00 0.00 0.00 78 1018.8
20260510102703 51 73 0.0 7.0 0.00 0.00 0.00 79 1018.9
20260510102404 51 69 0.9 7.0 0.00 0.00 0.00 78 1018.8
20260510102104 51 64 0.9 7.0 0.00 0.00 0.00 78 1018.8
20260510101803 51 68 0.9 5.2 0.00 0.00 0.00 78 1018.9
20260510101503 51 77 0.0 5.2 0.00 0.00 0.00 78 1018.8
20260510101203 51 79 0.0 1.7 0.00 0.00 0.00 79 1018.9
20260510101112 51 71 0.9 3.5 0.00 0.00 0.00 79 1018.9
20260510100603 50 64 0.9 3.5 0.00 0.00 0.00 79 1019.0
20260510100304 50 58 0.9 5.2 0.00 0.00 0.00 78 1019.0
20260510100003 50 66 0.9 5.2 0.00 0.00 0.00 79 1018.9
20260510095703 50 76 0.9 5.2 0.00 0.00 0.00 79 1019.0
20260510095403 50 76 0.9 5.2 0.00 0.00 0.00 78 1018.9
20260510095103 51 59 0.0 2.6 0.00 0.00 0.00 80 1018.9
20260510094803 50 330 0.0 1.7 0.00 0.00 0.00 81 1018.9
20260510094503 50 350 0.0 1.7 0.00 0.00 0.00 80 1019.0
20260510094203 50 68 0.0 2.6 0.00 0.00 0.00 81 1019.0
20260510093903 50 70 0.9 2.6 0.00 0.00 0.00 81 1019.0
20260510093603 50 49 0.9 2.6 0.00 0.00 0.00 81 1019.0
20260510093303 50 56 0.9 4.3 0.00 0.00 0.00 80 1019.0
20260510093213 50 51 0.9 4.3 0.00 0.00 0.00 80 1019.0
20260510092703 50 64 0.9 4.3 0.00 0.00 0.00 81 1019.1
20260510092613 50 72 0.9 4.3 0.00 0.00 0.00 81 1019.1
20260510092103 50 86 0.9 2.6 0.00 0.00 0.00 82 1019.1
20260510091803 50 84 0.9 2.6 0.00 0.00 0.00 82 1019.2
20260510091504 50 88 0.9 2.6 0.00 0.00 0.00 81 1019.1
20260510091203 50 64 0.0 2.6 0.00 0.00 0.00 82 1019.2
20260510091114 50 77 0.0 2.6 0.00 0.00 0.00 83 1019.2
20260510090603 50 72 0.0 2.6 0.00 0.00 0.00 83 1019.2
20260510090303 49 64 0.0 2.6 0.00 0.00 0.00 83 1019.2
20260510090003 49 56 0.9 6.1 0.00 0.00 0.00 82 1019.2
20260510085703 49 44 0.9 6.1 0.00 0.00 0.00 83 1019.2
20260510085613 49 45 0.9 6.1 0.00 0.00 0.00 82 1019.2
20260510085103 49 57 0.0 5.2 0.00 0.00 0.00 83 1019.2
20260510084803 49 45 0.0 5.2 0.00 0.00 0.00 83 1019.2
20260510084712 49 61 0.0 3.5 0.00 0.00 0.00 84 1019.2
20260510084203 49 68 0.9 5.2 0.00 0.00 0.00 84 1019.4
20260510083903 49 69 0.9 5.2 0.00 0.00 0.00 83 1019.3
20260510083813 49 69 0.9 5.2 0.00 0.00 0.00 83 1019.4
20260510083303 48 67 0.0 1.7 0.00 0.00 0.00 85 1019.4
20260510083003 48 67 0.0 1.7 0.00 0.00 0.00 84 1019.5
20260510082704 48 81 0.0 3.5 0.00 0.00 0.00 84 1019.4
20260510082403 48 75 0.9 3.5 0.00 0.00 0.00 85 1019.4
20260510082103 48 78 0.0 3.5 0.00 0.00 0.00 84 1019.3
20260510081804 48 79 0.0 2.6 0.00 0.00 0.00 85 1019.4
20260510081714 48 71 0.0 1.7 0.00 0.00 0.00 85 1019.4
20260510081203 48 60 0.0 3.5 0.00 0.00 0.00 86 1019.5
20260510080903 48 53 0.9 4.3 0.00 0.00 0.00 85 1019.4
20260510080603 48 48 0.9 4.3 0.00 0.00 0.00 85 1019.4
20260510080513 48 48 0.9 4.3 0.00 0.00 0.00 85 1019.6
20260510080003 48 44 0.0 4.3 0.00 0.00 0.00 86 1019.5
20260510075703 48 71 0.0 3.5 0.00 0.00 0.00 86 1019.5
20260510075403 48 69 0.0 4.3 0.00 0.00 0.00 86 1019.5
20260510075103 48 64 0.0 4.3 0.00 0.00 0.00 86 1019.5
20260510075014 48 63 0.9 4.3 0.00 0.00 0.00 86 1019.6
20260510074714 48 59 0.9 4.3 0.00 0.00 0.00 85 1019.5
20260510074204 48 66 0.9 5.2 0.00 0.00 0.00 86 1019.4
20260510074113 48 67 0.9 5.2 0.00 0.00 0.00 86 1019.4
20260510073603 48 62 0.9 5.2 0.00 0.00 0.00 86 1019.4
20260510073303 48 63 0.9 4.3 0.00 0.00 0.00 86 1019.4
20260510073213 48 62 0.9 4.3 0.00 0.00 0.00 86 1019.4
20260510072703 48 71 0.0 4.3 0.00 0.00 0.00 86 1019.4
20260510072404 48 41 0.9 3.5 0.00 0.00 0.00 87 1019.3
20260510072314 48 43 0.9 3.5 0.00 0.00 0.00 86 1019.3
20260510071803 48 41 0.9 3.5 0.00 0.00 0.00 86 1019.2
20260510071503 48 73 0.0 3.5 0.00 0.00 0.00 86 1019.2
20260510071203 48 90 0.0 3.5 0.00 0.00 0.00 87 1019.2
20260510070903 48 76 0.0 4.3 0.00 0.00 0.00 86 1019.3
20260510070813 48 76 0.0 4.3 0.00 0.00 0.00 86 1019.2
20260510070303 48 72 0.0 4.3 0.00 0.00 0.00 86 1019.1
20260510070005 48 73 0.0 4.3 0.00 0.00 0.00 87 1019.2
20260510065703 48 59 0.9 4.3 0.00 0.00 0.00 87 1019.2
20260510065403 48 47 0.9 4.3 0.00 0.00 0.00 86 1019.1
20260510065314 48 52 0.9 4.3 0.00 0.00 0.00 86 1019.1
20260510064803 48 47 0.0 4.3 0.00 0.00 0.00 87 1019.0
20260510064503 48 67 0.0 3.5 0.00 0.00 0.00 87 1019.0
20260510064203 48 4 0.0 3.5 0.00 0.00 0.00 87 1019.0
20260510063903 48 42 0.0 3.5 0.00 0.00 0.00 87 1019.1
20260510063813 48 43 0.0 3.5 0.00 0.00 0.00 87 1019.1
20260510063303 48 80 0.0 2.6 0.00 0.00 0.00 88 1019.0
20260510063004 48 83 0.0 2.6 0.00 0.00 0.00 88 1019.0
20260510062914 48 74 0.0 4.3 0.00 0.00 0.00 88 1019.0
20260510062614 48 57 0.9 4.3 0.00 0.00 0.00 87 1019.0
20260510062103 48 58 0.9 4.3 0.00 0.00 0.00 87 1018.9
20260510061803 48 58 0.9 2.6 0.00 0.00 0.00 88 1018.9
20260510061503 48 29 0.0 3.5 0.00 0.00 0.00 88 1018.8
20260510061203 48 29 0.0 3.5 0.00 0.00 0.00 88 1018.9
20260510060903 48 42 0.0 3.5 0.00 0.00 0.00 88 1018.8
20260510060603 48 84 0.0 1.7 0.00 0.00 0.00 88 1018.8
20260510060303 48 84 0.0 1.7 0.00 0.00 0.00 88 1018.9
20260510060003 48 83 0.0 1.7 0.00 0.00 0.00 88 1018.8
20260510055703 48 73 0.0 1.7 0.00 0.00 0.00 88 1018.9
20260510055403 48 136 0.0 1.7 0.00 0.00 0.00 88 1018.8
20260510055313 48 136 0.0 1.7 0.00 0.00 0.00 88 1018.8
20260510054803 48 92 0.0 3.5 0.00 0.00 0.00 88 1018.8
20260510054503 48 140 0.0 3.5 0.00 0.00 0.00 88 1018.9
20260510054203 48 68 0.0 3.5 0.00 0.00 0.00 88 1018.8
20260510053903 48 93 0.0 2.6 0.00 0.00 0.00 88 1018.8
20260510053603 48 63 0.0 2.6 0.00 0.00 0.00 88 1018.7
20260510053303 48 84 0.0 2.6 0.00 0.00 0.00 88 1018.7
20260510053214 48 78 0.0 2.6 0.00 0.00 0.00 88 1018.7
20260510052703 48 72 0.0 2.6 0.00 0.00 0.00 88 1018.7
20260510052403 48 59 0.0 1.7 0.00 0.00 0.00 89 1018.7
20260510052103 48 40 0.0 1.7 0.00 0.00 0.00 89 1018.8
20260510051803 48 310 0.0 1.7 0.00 0.00 0.00 89 1018.8
20260510051503 48 45 0.0 1.7 0.00 0.00 0.00 89 1018.8
20260510051203 48 57 0.0 1.7 0.00 0.00 0.00 89 1018.8
20260510050904 48 77 0.0 1.7 0.00 0.00 0.00 89 1018.9
20260510050812 48 71 0.0 1.7 0.00 0.00 0.00 89 1018.9
20260510050303 48 44 0.0 10.4 0.00 0.00 0.00 89 1018.9
20260510050003 48 37 0.9 10.4 0.00 0.00 0.00 89 1018.9
20260510045913 48 32 0.9 10.4 0.00 0.00 0.00 89 1018.9
20260510045403 48 46 0.9 3.5 0.00 0.00 0.00 89 1018.9
20260510045313 48 46 0.9 3.5 0.00 0.00 0.00 89 1018.9
20260510044803 48 75 0.0 1.7 0.00 0.00 0.00 89 1018.9
20260510044503 48 89 0.0 1.7 0.00 0.00 0.00 89 1018.9
20260510044203 48 83 0.0 2.6 0.00 0.00 0.00 89 1019.0
20260510043903 48 77 0.0 2.6 0.00 0.00 0.00 89 1018.9
20260510043603 48 75 0.0 2.6 0.00 0.00 0.00 89 1019.0
20260510043303 48 62 0.9 3.5 0.00 0.00 0.00 89 1019.1
20260510043214 48 54 0.9 3.5 0.00 0.00 0.00 89 1019.0
20260510042703 48 44 0.9 6.1 0.00 0.00 0.00 89 1019.0
20260510042403 48 55 0.9 6.1 0.00 0.00 0.00 89 1019.0
20260510042103 48 73 0.0 6.1 0.00 0.00 0.00 89 1019.0
20260510042013 48 64 0.9 6.1 0.00 0.00 0.00 89 1019.0
20260510041503 48 99 0.0 2.6 0.00 0.00 0.00 89 1019.0
20260510041204 48 80 0.0 2.6 0.00 0.00 0.00 89 1019.0
20260510040903 48 47 0.0 3.5 0.00 0.00 0.00 89 1019.1
20260510040603 48 26 0.0 3.5 0.00 0.00 0.00 89 1019.1
20260510040303 48 352 0.0 3.5 0.00 0.00 0.00 89 1019.1
20260510040003 48 352 0.0 4.3 0.00 0.00 0.00 89 1019.1
20260510035703 48 358 0.0 4.3 0.00 0.00 0.00 89 1019.2
20260510035613 48 358 0.0 4.3 0.00 0.00 0.00 89 1019.2
20260510035103 48 27 0.0 4.3 0.00 0.00 0.00 89 1019.1
20260510034803 48 99 0.0 1.7 0.00 0.00 0.00 89 1019.2
20260510034503 48 76 0.0 1.7 0.00 0.00 0.00 89 1019.2
20260510034203 48 68 0.0 1.7 0.00 0.00 0.00 89 1019.2
20260510033903 48 53 0.0 1.7 0.00 0.00 0.00 89 1019.2
20260510033603 48 34 0.0 1.7 0.00 0.00 0.00 89 1019.2
20260510033303 48 3 0.0 2.6 0.00 0.00 0.00 89 1019.1
20260510033213 48 5 0.0 2.6 0.00 0.00 0.00 89 1019.1
20260510032703 48 10 0.0 2.6 0.00 0.00 0.00 89 1019.1
20260510032403 48 76 0.0 0.9 0.00 0.00 0.00 89 1019.2
20260510032103 48 106 0.0 1.7 0.00 0.00 0.00 89 1019.2
20260510032012 48 107 0.0 1.7 0.00 0.00 0.00 89 1019.2
20260510031503 48 81 0.0 1.7 0.00 0.00 0.00 89 1019.2
20260510031414 48 81 0.0 1.7 0.00 0.00 0.00 89 1019.2
20260510030903 48 43 0.0 1.7 0.00 0.00 0.00 89 1019.3
20260510030603 48 164 0.0 0.9 0.00 0.00 0.00 89 1019.2
20260510030513 48 164 0.0 0.9 0.00 0.00 0.00 89 1019.2
20260510030003 48 127 0.0 2.6 0.00 0.00 0.00 88 1019.3
20260510025703 48 122 0.0 2.6 0.00 0.00 0.00 88 1019.3
20260510025615 48 117 0.0 2.6 0.00 0.00 0.00 88 1019.3
20260510025103 48 312 0.0 3.5 0.00 0.00 0.00 88 1019.3
20260510024803 48 15 0.0 5.2 0.00 0.00 0.00 88 1019.3
20260510024503 49 19 0.0 5.2 0.00 0.00 0.00 88 1019.2
20260510024203 49 23 0.0 5.2 0.00 0.00 0.00 88 1019.3
20260510023903 49 47 0.0 3.5 0.00 0.00 0.00 88 1019.3
20260510023603 49 62 0.0 4.3 0.00 0.00 0.00 88 1019.2
20260510023303 49 66 0.0 4.3 0.00 0.00 0.00 88 1019.3
20260510023003 49 64 0.9 4.3 0.00 0.00 0.00 88 1019.2
20260510022912 49 64 0.9 4.3 0.00 0.00 0.00 88 1019.3
20260510022403 49 42 0.9 3.5 0.00 0.00 0.00 88 1019.3
20260510022103 49 44 0.9 3.5 0.00 0.00 0.00 87 1019.3
20260510022014 49 45 0.9 3.5 0.00 0.00 0.00 88 1019.2
20260510021503 49 23 0.0 4.3 0.00 0.00 0.00 88 1019.3
20260510021203 49 24 0.9 4.3 0.00 0.00 0.00 87 1019.2
20260510020903 49 39 0.9 4.3 0.00 0.00 0.00 87 1019.3
20260510020603 49 43 0.9 4.3 0.00 0.00 0.00 87 1019.3
20260510020303 49 49 0.9 6.1 0.00 0.00 0.00 87 1019.2
20260510020005 49 41 0.0 6.1 0.00 0.00 0.00 87 1019.2
20260510015703 50 50 0.0 6.1 0.00 0.00 0.00 87 1019.3
20260510015403 50 256 0.0 0.9 0.00 0.00 0.00 87 1019.3
20260510015103 50 263 0.0 0.9 0.00 0.00 0.00 87 1019.3
20260510015014 50 17 0.0 1.7 0.00 0.00 0.00 87 1019.3
20260510014503 50 59 0.0 4.3 0.00 0.00 0.00 87 1019.1
20260510014203 50 61 0.9 4.3 0.00 0.00 0.00 87 1019.2
20260510014113 50 58 0.9 4.3 0.00 0.00 0.00 87 1019.2
20260510013603 50 62 0.0 3.5 0.00 0.00 0.00 87 1019.3
20260510013303 50 52 0.0 3.5 0.00 0.00 0.00 87 1019.3
20260510013003 50 314 0.0 3.5 0.00 0.00 0.00 87 1019.2
20260510012703 50 295 0.0 3.5 0.00 0.00 0.00 87 1019.3
20260510012403 50 271 0.0 3.5 0.00 0.00 0.00 87 1019.3
20260510012103 50 136 0.0 0.9 0.00 0.00 0.00 87 1019.4
20260510012014 50 136 0.0 3.5 0.00 0.00 0.00 87 1019.3
20260510011503 50 120 0.0 5.2 0.00 0.00 0.00 86 1019.3
20260510011413 50 121 0.0 5.2 0.00 0.00 0.00 86 1019.3
20260510010903 50 119 0.0 4.3 0.00 0.00 0.00 86 1019.4
20260510010813 50 119 0.0 4.3 0.00 0.00 0.00 86 1019.4
20260510010303 50 127 0.0 1.7 0.00 0.00 0.00 86 1019.5
20260510010003 50 129 0.0 1.7 0.00 0.00 0.00 86 1019.4
20260510005703 50 130 0.0 1.7 0.00 0.00 0.00 86 1019.4
20260510005403 50 132 0.0 1.7 0.00 0.00 0.00 86 1019.4
20260510005103 50 75 0.0 4.3 0.00 0.00 0.00 86 1019.4
20260510004803 50 73 0.0 4.3 0.00 0.00 0.00 86 1019.4
20260510004503 50 74 0.0 4.3 0.00 0.00 0.00 86 1019.4
20260510004203 50 358 0.0 4.3 0.00 0.00 0.00 86 1019.3
20260510004113 50 342 0.0 4.3 0.00 0.00 0.00 86 1019.3
20260510003604 50 340 0.0 3.5 0.00 0.00 0.00 86 1019.4
20260510003303 50 90 0.0 1.7 0.00 0.00 0.00 86 1019.3
20260510003003 50 86 0.0 1.7 0.00 0.00 0.00 86 1019.3
20260510002914 50 96 0.0 1.7 0.00 0.00 0.00 86 1019.3
20260510002403 50 89 0.0 4.3 0.00 0.00 0.00 86 1019.2
20260510002313 50 69 0.0 4.3 0.00 0.00 0.00 86 1019.1
20260510001803 50 70 0.0 4.3 0.00 0.00 0.00 86 1019.2
20260510001503 50 31 0.9 4.3 0.00 0.00 0.00 86 1019.2
20260510001415 50 23 0.9 3.5 0.00 0.00 0.00 86 1019.2
20260510000903 50 22 0.0 3.5 0.00 0.00 0.00 86 1019.3
20260510000603 50 30 0.0 1.7 0.00 0.00 0.00 85 1019.3
20260510000304 50 354 0.0 1.7 0.00 0.00 0.00 85 1019.3
20260510000003 50 59 0.0 3.5 0.00 0.00 0.00 85 1019.2
20260509235703 50 64 0.0 3.5 0.00 0.00 0.00 85 1019.2
20260509235403 51 76 0.0 3.5 0.00 0.00 0.00 85 1019.3
20260509235103 51 43 0.0 3.5 0.00 0.00 0.00 85 1019.2
20260509234803 51 13 0.0 3.5 0.00 0.00 0.00 85 1019.3
20260509234503 51 36 0.9 3.5 0.00 0.00 0.00 85 1019.1
20260509234203 51 33 0.9 3.5 0.00 0.00 0.00 85 1019.3
20260509233903 51 27 0.9 3.5 0.00 0.00 0.00 85 1019.3
20260509233603 51 30 0.9 3.5 0.00 0.00 0.00 84 1019.3
20260509233303 51 21 0.9 5.2 0.00 0.00 0.00 85 1019.2
20260509233003 51 5 0.9 6.1 0.00 0.00 0.00 85 1019.3
20260509232703 51 358 0.9 6.1 0.00 0.00 0.00 85 1019.2
20260509232403 51 12 0.9 6.1 0.00 0.00 0.00 85 1019.3
20260509232103 51 27 0.0 6.1 0.00 0.00 0.00 85 1019.3
20260509231803 51 83 0.0 6.1 0.00 0.00 0.00 85 1019.3
20260509231504 51 100 0.0 6.1 0.00 0.00 0.00 85 1019.3
20260509231412 51 143 0.0 2.6 0.00 0.00 0.00 85 1019.3
20260509230903 51 111 0.0 2.6 0.00 0.00 0.00 85 1019.2
20260509230604 52 102 0.0 2.6 0.00 0.00 0.00 85 1019.2
20260509230514 52 92 0.0 4.3 0.00 0.00 0.00 85 1019.2
20260509230004 52 73 0.9 4.3 0.00 0.00 0.00 84 1019.1
20260509225913 52 63 0.9 4.3 0.00 0.00 0.00 84 1019.1
20260509225404 52 35 0.9 3.5 0.00 0.00 0.00 85 1019.1
20260509225103 52 34 0.0 3.5 0.00 0.00 0.00 84 1019.1
20260509224804 52 62 0.0 1.7 0.00 0.00 0.00 85 1019.1
20260509224503 52 66 0.0 1.7 0.00 0.00 0.00 84 1019.1
20260509224203 52 70 0.0 1.7 0.00 0.00 0.00 85 1019.0
20260509223903 52 62 0.0 2.6 0.00 0.00 0.00 85 1019.0
20260509223814 52 63 0.0 2.6 0.00 0.00 0.00 85 1019.1
20260509223303 52 55 0.9 4.3 0.00 0.00 0.00 85 1018.9
20260509223003 52 74 0.0 4.3 0.00 0.00 0.00 85 1019.1
20260509222703 52 59 0.0 4.3 0.00 0.00 0.00 85 1018.9
20260509222403 52 41 0.9 7.0 0.00 0.00 0.00 85 1018.9
20260509222312 52 48 0.9 7.0 0.00 0.00 0.00 85 1018.9
20260509221803 52 57 0.9 7.0 0.00 0.00 0.00 84 1019.0
20260509221503 52 64 0.0 5.2 0.00 0.00 0.00 85 1018.9
20260509221414 52 61 0.0 5.2 0.00 0.00 0.00 85 1018.9
20260509221114 52 65 0.0 5.2 0.00 0.00 0.00 85 1018.9
20260509220815 52 56 0.0 3.5 0.00 0.00 0.00 85 1019.0
20260509220303 52 70 0.0 2.6 0.00 0.00 0.00 85 1018.9
20260509220003 52 75 0.0 2.6 0.00 0.01 0.00 85 1018.9
20260509215703 53 44 0.0 6.1 0.00 0.02 0.00 85 1018.9
20260509215404 53 36 0.0 6.1 0.00 0.03 0.00 85 1018.9
20260509215103 53 32 0.0 6.1 0.00 0.03 0.00 85 1018.9
20260509214803 53 31 0.0 6.1 0.00 0.03 0.00 85 1018.8
20260509214503 53 69 0.0 2.6 0.00 0.03 0.00 84 1018.9